RH
26 25 25 25 25 26 26 28 27 27 29 29 29 28 28 28 29 30 32 36 38 43 44 43 44 42 39 37 36 38 40 41 39 37 36 37 44 45 44 44 39 34 29 27 27 28 32 32 33 33 29 28 25 23 21 20 22 23 26 28 29 30 32 32 29 28 29 30 32 33 35 35 35 36 36 36 35 36 35 36 40 34 25 24 22 19 19 20 21 22 22 21 21 22 22 22 21
26 26 25 26 26 27 26 27 26 27 29 30 29 29 28 27 28 28 29 32 33 39 42 43 43 43 41 38 38 40 42 44 42 41 40 40 45 45 43 43 39 34 29 27 27 28 31 31 33 34 31 28 25 22 21 20 21 23 25 28 29 31 33 33 31 29 29 31 32 33 35 35 34 35 35 35 35 35 35 35 38 33 26 23 23 23 21 21 22 22 22 21 20 20 20 20 21
27 26 26 26 27 26 26 26 26 27 29 30 29 28 28 27 26 27 27 29 32 37 38 39 40 42 41 38 39 40 41 44 45 45 43 41 44 42 40 40 39 36 31 27 26 27 29 31 33 34 31 28 25 22 21 21 21 23 25 27 30 33 33 33 33 30 30 31 32 34 36 35 34 34 33 34 34 33 34 35 37 32 28 25 23 24 22 23 23 22 22 21 20 20 20 20 22
28 27 26 26 26 26 27 27 27 28 28 28 28 28 27 26 26 26 27 31 35 37 37 37 37 40 39 39 42 40 42 47 46 45 43 41 40 38 37 37 38 38 33 29 27 27 29 29 32 33 30 27 25 23 22 21 22 23 25 28 31 34 34 34 34 32 31 31 33 34 35 35 33 32 31 31 32 32 31 33 34 30 28 26 23 22 25 27 23 22 22 22 21 20 21 22 24
29 28 27 27 27 27 28 28 28 28 27 28 28 28 26 25 26 26 27 33 37 36 37 36 37 38 38 42 43 39 43 48 46 44 41 38 36 35 35 35 37 38 34 32 30 29 30 29 30 32 29 27 24 23 24 23 23 24 27 31 33 34 34 34 35 33 31 31 33 34 35 34 31 29 27 27 30 30 27 27 28 27 28 27 24 23 27 30 26 23 23 22 21 21 22 23 26
30 29 29 28 28 28 29 29 28 28 27 28 29 28 27 25 26 27 27 33 38 37 36 35 35 36 39 43 41 40 44 48 47 45 41 36 34 33 33 33 35 36 34 34 32 32 33 30 30 31 29 26 24 24 24 25 26 27 30 32 33 34 35 34 34 34 31 31 32 32 33 31 28 25 22 22 24 24 21 22 23 25 28 27 25 24 27 30 28 25 24 23 23 24 24 25 27
32 31 30 30 29 28 30 30 28 27 27 28 29 29 28 27 27 28 27 30 36 37 35 34 35 33 37 41 40 41 44 47 47 46 42 34 32 32 32 33 34 36 35 34 33 35 36 31 31 31 28 26 24 25 28 30 30 30 32 33 34 34 35 34 34 34 31 29 29 29 29 27 24 21 19 18 19 19 19 20 22 25 27 27 26 25 25 26 26 24 25 26 26 26 26 28 28
36 35 32 32 32 31 31 31 28 27 27 28 30 30 30 29 28 28 27 28 30 34 34 34 35 31 36 41 39 41 43 46 45 46 42 33 31 31 32 35 36 35 35 34 33 37 37 31 31 31 29 25 25 30 33 34 34 32 32 33 34 34 35 34 34 34 30 26 25 25 25 25 22 20 18 17 18 19 19 20 22 25 27 27 26 25 24 24 24 25 27 29 29 28 29 30 31
37 36 34 33 33 32 31 30 29 27 26 28 30 31 31 31 30 29 28 27 27 30 32 35 35 32 39 42 40 41 43 44 45 46 42 34 33 33 35 38 37 35 33 33 33 37 37 33 33 33 29 25 28 35 36 36 36 33 33 34 34 35 35 34 33 32 27 22 21 22 23 23 21 19 17 17 18 19 19 21 23 25 26 27 27 26 26 26 25 26 29 31 31 31 32 33 33
36 36 35 34 32 32 31 29 28 28 28 28 30 30 31 31 30 30 29 28 27 30 35 36 36 38 42 43 43 43 43 45 46 47 42 37 36 37 39 40 38 35 32 31 33 35 35 36 37 36 31 27 33 38 37 37 36 34 34 34 34 35 35 33 30 29 24 19 19 20 22 22 21 20 18 17 18 19 20 21 24 26 27 28 28 27 28 28 28 29 31 32 33 34 33 34 34
36 36 35 33 33 31 31 30 29 27 28 30 30 30 31 31 31 32 31 30 31 36 40 37 37 43 45 46 47 43 42 46 47 47 42 40 39 39 42 41 40 36 32 33 33 32 33 36 40 39 33 33 38 38 36 36 36 35 34 34 35 35 34 31 27 26 23 19 18 19 22 22 21 20 18 17 18 19 21 23 25 27 27 28 28 28 28 29 29 31 32 34 36 36 36 36 36
38 38 37 34 33 32 31 31 31 29 29 30 32 31 30 31 31 32 31 33 35 39 43 39 37 41 44 47 47 44 44 48 49 46 43 43 41 41 43 42 41 37 35 35 31 31 33 35 40 40 36 37 39 37 36 34 35 36 34 35 35 34 32 28 25 25 23 19 17 19 22 23 22 21 19 18 18 20 22 24 27 28 28 28 28 27 28 29 30 32 33 34 36 37 37 38 39
38 39 39 36 33 33 33 31 31 31 30 30 34 33 30 31 31 30 32 38 41 41 42 40 39 40 44 46 46 44 45 48 48 46 45 44 43 43 44 42 41 38 36 35 32 32 33 36 40 40 38 40 38 36 35 33 36 37 35 36 35 34 31 26 25 25 22 18 17 19 22 23 23 22 20 18 19 21 23 26 27 29 29 29 27 26 26 28 30 31 32 33 34 36 37 39 41
37 36 37 37 35 35 34 33 32 32 31 31 36 34 31 32 33 34 35 41 45 43 42 43 40 40 45 47 46 45 44 46 47 47 46 45 44 44 44 43 41 39 37 35 32 32 33 37 41 40 43 44 39 37 35 35 37 38 38 37 35 33 30 26 25 24 22 18 17 20 22 23 24 23 21 19 19 21 23 26 28 29 30 29 27 25 24 25 27 29 30 31 33 34 36 38 40
35 35 36 36 35 35 34 35 35 33 32 34 36 33 33 35 35 39 41 40 42 43 42 44 41 39 43 45 44 44 44 45 47 48 46 45 44 44 44 42 40 39 37 35 30 29 34 38 37 42 50 46 41 40 38 37 38 40 41 38 36 34 30 27 25 24 21 18 18 20 23 24 25 24 23 21 20 21 24 27 29 30 31 30 28 25 24 24 24 26 27 28 30 32 33 35 37
34 34 35 35 34 34 33 34 36 35 34 36 36 33 36 38 36 39 42 39 41 44 44 46 43 40 43 43 41 42 43 44 46 47 46 45 43 44 44 40 39 37 36 34 29 29 35 37 36 44 52 47 43 44 42 41 40 41 42 40 37 35 31 28 25 23 21 18 19 22 23 25 26 26 24 23 22 23 25 28 29 31 31 30 28 25 25 24 23 24 24 25 26 28 29 31 32
34 34 35 34 32 32 31 32 34 34 34 35 35 33 34 39 41 40 40 42 44 47 48 48 45 42 43 44 42 41 43 44 45 46 45 44 42 43 43 39 36 33 32 32 29 31 35 36 39 46 51 51 49 46 45 45 43 44 44 41 38 35 31 28 26 23 20 19 21 24 25 26 28 29 27 25 25 25 27 29 30 31 32 30 27 25 25 24 23 22 23 22 23 24 25 26 27
34 35 34 33 31 31 30 31 32 33 34 35 35 34 34 37 45 44 42 46 47 47 49 48 46 44 42 42 42 41 43 44 45 46 45 44 43 43 41 38 34 31 30 29 28 33 38 38 40 45 51 53 51 47 47 48 48 48 46 42 38 35 31 28 27 23 21 22 24 26 26 27 31 34 33 31 31 30 31 31 32 32 32 30 27 26 25 24 23 22 22 22 22 23 23 24 25
33 34 33 31 30 30 29 31 32 33 33 35 36 35 34 35 42 43 41 47 48 45 47 47 45 44 42 42 43 41 42 44 45 46 45 44 43 42 41 38 33 30 29 28 29 33 41 44 41 44 50 52 50 48 48 50 51 51 47 41 37 34 31 30 28 24 24 26 27 29 29 31 36 41 39 38 38 39 39 38 36 35 33 31 29 27 26 25 24 23 23 23 23 24 24 24 24
32 33 31 29 29 30 30 31 32 33 33 35 36 35 34 34 39 41 42 47 47 43 43 45 45 44 44 44 45 43 43 45 46 47 46 44 43 41 40 38 34 31 29 30 29 30 42 49 45 46 49 49 49 49 51 50 51 51 47 42 38 35 32 30 28 27 28 29 31 33 34 36 42 45 43 41 42 44 46 45 44 42 39 36 33 31 29 27 27 26 25 24 24 24 25 26 28
31 31 29 28 29 30 31 30 31 32 32 33 34 33 32 33 37 41 44 44 44 43 38 37 38 39 42 45 46 45 44 46 47 47 45 43 42 41 39 37 35 31 30 31 29 30 40 47 46 48 47 47 49 52 54 51 49 49 46 41 39 35 30 28 30 31 32 33 35 38 39 41 46 48 46 43 44 46 48 48 49 48 45 44 43 41 39 37 37 36 33 31 30 30 31 34 36
29 29 29 29 29 31 30 30 29 30 30 30 31 31 30 34 39 41 40 36 36 37 33 31 32 33 37 40 44 45 45 46 47 46 44 43 42 40 37 37 36 32 29 31 31 30 37 44 48 51 51 50 52 56 58 54 51 49 45 42 38 34 31 31 35 37 38 38 39 40 43 46 47 49 48 44 44 47 48 48 49 47 45 45 46 48 48 46 47 45 43 41 40 41 41 42 45
28 28 29 29 29 30 29 29 28 29 29 29 30 29 31 36 39 39 37 31 30 31 30 31 33 34 37 39 42 43 44 46 46 44 44 43 42 40 36 37 38 32 29 31 30 31 36 44 52 57 57 56 57 59 59 57 57 55 51 48 42 36 34 35 39 42 43 42 41 43 47 48 48 51 50 44 45 47 47 48 47 46 45 44 46 48 48 47 47 47 46 44 44 44 44 45 45
27 27 28 28 28 28 28 28 28 28 28 28 29 28 32 35 34 39 39 30 28 29 29 32 34 35 38 40 41 41 43 46 47 45 43 42 42 39 35 37 39 34 32 33 31 32 38 47 55 58 60 61 61 61 60 61 63 62 58 54 49 41 38 40 42 43 44 44 44 46 50 50 50 54 50 44 46 48 49 48 46 46 46 45 44 45 46 46 46 46 45 44 43 42 42 42 42
26 26 27 28 28 28 27 28 28 28 28 28 27 27 30 29 31 40 38 30 28 28 29 33 34 36 38 40 42 43 44 46 47 45 44 42 41 37 35 39 39 35 35 36 34 34 40 48 55 57 59 63 63 61 62 64 66 64 61 58 53 48 45 45 44 43 44 45 46 49 53 53 55 57 51 46 47 49 49 48 47 47 46 45 43 42 44 45 44 44 43 42 41 41 41 40 40
25 25 26 26 26 27 27 27 27 27 28 27 26 31 32 29 30 34 33 28 27 28 31 33 34 35 39 42 44 44 44 46 46 46 45 43 40 37 37 41 40 37 36 36 36 34 37 44 52 56 56 60 62 62 62 65 66 65 64 62 57 54 52 49 45 43 44 45 48 52 55 58 61 60 53 49 50 50 49 47 47 47 47 46 43 41 42 43 42 41 40 40 40 40 38 38 37
26 25 25 25 25 26 26 26 27 26 28 25 27 38 41 35 31 28 29 28 27 30 32 33 35 36 39 44 48 47 46 48 49 48 47 44 41 39 40 41 40 38 36 35 34 31 32 37 46 54 55 57 59 60 60 63 67 68 67 66 63 59 57 53 47 43 43 44 48 53 57 63 65 63 58 57 57 55 52 49 48 48 49 49 44 41 42 43 43 41 39 39 38 37 36 36 34
28 27 26 26 25 25 25 25 26 25 27 25 27 38 44 40 32 25 27 27 28 33 32 33 38 39 42 47 50 49 48 51 51 50 48 45 42 40 40 41 40 39 36 33 31 29 31 35 43 51 54 55 55 56 57 61 68 71 70 68 67 65 61 57 50 44 43 45 49 53 59 66 68 66 64 63 63 63 59 54 51 51 52 52 48 44 44 45 44 41 38 36 34 34 34 33 32
26 27 28 27 26 25 25 25 26 25 25 25 26 31 34 34 29 25 25 27 32 36 33 36 40 42 45 49 50 47 47 50 50 50 47 44 41 39 39 40 41 40 38 34 31 31 31 35 42 48 52 53 53 54 54 59 67 70 69 68 68 66 63 60 52 46 47 52 55 56 62 69 70 69 68 67 67 68 66 60 56 54 54 56 53 47 44 43 40 36 34 33 32 32 33 33 32
20 23 25 27 27 25 24 25 25 25 25 24 26 24 23 27 30 30 29 30 36 40 38 39 42 44 45 48 48 44 44 46 48 49 46 42 39 36 36 39 41 42 41 37 33 33 33 36 42 47 52 54 55 55 53 58 67 68 67 66 66 66 65 63 56 54 59 65 66 64 66 69 70 71 71 71 72 71 69 66 62 60 60 59 54 48 44 38 34 32 32 33 33 34 34 34 33
16 18 20 21 24 21 20 23 24 24 24 24 26 22 17 23 31 37 38 36 36 39 41 41 42 44 45 47 44 41 41 42 46 48 44 41 38 35 36 38 41 43 43 41 36 34 35 37 43 50 56 58 60 59 55 58 67 68 65 66 65 66 67 66 64 67 73 76 75 72 71 72 72 73 73 73 76 75 73 70 67 67 66 61 53 46 40 35 32 32 33 34 35 35 35 34 35
15 16 17 15 16 16 16 19 20 20 22 23 23 20 17 19 28 39 42 40 37 36 40 40 41 42 43 45 42 39 40 40 45 47 42 41 38 36 37 38 41 43 44 43 38 36 37 39 47 57 61 61 60 60 57 59 66 68 66 66 66 67 69 70 73 77 80 81 79 76 75 77 76 76 75 75 76 77 76 74 71 70 66 57 50 44 39 36 35 34 35 36 36 36 36 37 37
17 15 15 13 12 13 13 14 15 15 17 19 18 17 19 18 25 36 38 37 36 34 36 37 38 40 39 41 40 39 39 40 45 46 42 41 39 38 39 40 41 43 44 43 39 38 40 44 52 60 63 62 58 56 57 60 66 69 68 68 68 70 72 75 80 83 84 83 81 79 78 78 76 76 76 76 77 77 77 75 71 66 59 54 49 46 42 39 37 37 37 37 37 37 38 38 37
19 16 14 13 12 11 11 11 12 12 12 14 13 13 17 20 24 31 33 33 32 30 31 33 35 36 37 37 39 40 39 40 44 46 44 42 41 40 40 41 42 43 43 42 41 41 44 51 58 60 61 61 57 54 55 59 64 68 69 72 74 76 77 81 85 87 87 84 82 82 79 77 76 76 77 78 78 78 76 73 66 59 54 52 49 45 41 38 37 38 38 38 38 38 38 38 37
16 16 14 13 13 13 12 11 12 11 11 11 11 11 13 21 25 27 29 30 29 28 28 30 31 33 34 36 40 41 40 40 44 47 46 44 44 43 42 43 43 44 42 41 44 44 48 60 66 63 61 62 61 57 56 59 63 68 73 77 81 81 82 85 88 89 88 84 83 83 79 78 79 78 78 78 79 79 73 65 57 54 53 52 48 43 39 38 38 39 39 39 39 38 38 37 37
14 14 15 15 15 15 14 13 13 12 12 10 11 10 10 19 25 25 27 29 28 27 27 28 30 31 33 35 40 42 40 40 42 45 47 46 46 45 44 43 45 46 43 41 44 47 53 63 67 65 64 66 67 63 60 62 67 73 79 81 84 85 86 88 89 89 88 85 83 82 81 80 80 80 80 80 80 75 65 56 53 55 54 50 45 40 38 38 38 38 39 38 37 36 36 35 35
15 16 17 16 16 17 15 15 14 13 14 12 11 12 12 18 25 26 27 29 27 26 27 27 28 31 32 35 40 42 40 39 40 43 47 47 47 47 45 44 45 47 46 43 46 54 62 66 66 67 72 74 72 68 65 66 71 77 81 83 86 88 88 88 88 87 86 86 84 83 83 82 81 81 81 82 79 71 62 59 58 56 50 44 41 39 38 38 38 39 39 37 36 34 34 33 33
18 17 17 17 17 16 15 15 14 14 14 14 14 14 14 19 25 27 28 28 27 25 26 27 28 30 32 36 40 41 39 39 40 43 47 49 49 48 45 45 44 47 50 49 54 62 66 69 69 71 76 77 74 70 68 70 75 80 83 85 87 88 88 88 87 86 85 86 85 84 84 83 82 82 82 80 75 68 64 59 54 48 43 41 40 39 39 39 40 39 38 36 34 33 33 32 32
20 18 17 18 16 16 16 14 15 15 13 16 18 15 16 21 25 27 28 27 26 26 27 28 29 31 33 36 39 39 39 39 41 44 48 48 47 45 45 47 47 49 54 55 59 65 67 70 73 74 76 76 74 73 72 75 80 83 85 86 88 88 88 89 88 87 86 87 87 85 85 84 85 84 82 76 69 65 57 49 45 42 41 41 41 40 41 41 40 38 36 34 33 32 33 33 33
23 20 19 18 17 17 16 16 22 22 19 21 21 18 22 26 28 28 28 27 27 27 29 30 31 32 33 35 37 39 39 40 41 43 45 46 47 48 49 51 51 52 55 57 59 65 68 71 73 74 75 76 77 76 76 79 83 84 83 86 89 89 89 90 88 87 87 88 88 87 86 86 85 82 77 71 66 59 49 44 43 42 42 41 42 43 42 40 37 35 33 31 31 31 32 32 32
24 22 20 19 18 16 16 21 27 26 25 25 22 23 27 27 28 28 27 28 28 27 28 30 31 33 34 36 38 39 39 39 40 41 43 45 49 52 52 54 54 55 58 59 62 67 68 71 74 77 78 79 79 77 77 79 81 81 82 86 87 88 90 90 89 88 88 88 87 87 85 82 78 75 71 66 60 52 46 45 43 41 42 43 44 42 39 36 34 32 30 30 31 31 31 30 29
26 24 21 20 19 18 21 26 25 23 26 25 22 23 26 27 29 27 27 28 28 28 28 28 31 34 36 37 38 38 38 38 39 41 43 47 52 54 55 56 54 56 61 62 65 68 68 73 80 82 80 80 80 78 77 78 79 78 80 84 85 87 89 89 88 88 88 87 85 84 82 77 71 67 65 60 55 49 46 44 41 41 44 44 42 38 34 32 30 29 30 31 32 31 29 28 28
28 25 22 21 22 24 28 25 20 23 24 25 25 20 23 32 31 27 28 29 28 29 29 28 30 34 36 36 37 38 37 36 37 39 42 45 51 54 55 56 54 60 66 63 64 67 69 76 81 79 78 79 80 79 78 79 80 80 81 85 86 87 87 86 85 86 87 86 83 82 80 73 65 60 58 55 51 48 44 42 41 43 44 41 37 33 31 30 29 31 32 32 31 29 29 28 28
27 25 23 22 22 26 31 26 23 27 28 31 31 21 21 29 28 26 28 28 28 28 28 28 29 32 35 36 36 36 36 35 35 37 39 41 46 51 54 57 58 64 67 64 65 67 70 76 77 75 76 77 77 77 78 80 81 82 84 86 88 88 86 85 85 84 86 85 83 82 78 69 61 56 53 50 47 45 42 41 42 43 41 37 33 31 30 30 31 32 31 29 28 28 28 29 29
25 25 26 26 25 26 31 31 31 33 33 36 37 27 21 23 27 29 28 28 28 27 28 27 27 29 33 33 34 34 34 34 35 36 38 38 42 47 52 56 60 64 64 63 65 68 70 74 73 71 72 72 72 74 77 79 81 84 86 86 87 87 85 84 84 84 84 84 83 80 74 64 57 53 50 47 44 43 43 42 42 41 37 33 31 31 32 32 32 29 27 26 27 28 28 28 28
24 25 28 29 29 29 31 34 37 40 37 33 33 30 21 20 31 33 29 29 27 24 26 26 26 28 29 30 32 33 34 34 35 36 37 38 41 46 50 55 60 62 62 63 65 68 71 72 69 67 68 70 73 75 76 77 80 85 87 88 86 84 83 83 83 82 81 81 78 72 66 61 56 51 48 45 44 43 43 42 40 37 34 32 32 33 33 31 28 25 25 26 27 27 27 26 25
26 26 29 31 32 31 33 33 38 47 43 30 28 31 24 21 30 32 28 27 24 23 26 25 25 26 27 29 31 33 33 35 36 37 37 38 40 44 49 56 60 61 63 64 65 70 72 69 65 64 65 69 74 77 78 80 83 86 88 88 86 83 82 79 78 78 77 73 68 62 59 57 54 51 48 46 45 44 43 40 37 35 35 35 35 34 31 28 25 24 25 26 26 25 24 23 23
28 27 28 33 34 33 34 34 41 47 39 30 30 34 32 26 24 26 26 24 22 24 25 24 24 24 26 28 30 32 33 35 37 37 38 38 39 43 48 54 59 61 65 65 66 71 72 67 63 63 66 71 73 75 80 83 85 87 87 87 86 84 81 79 77 76 73 68 63 59 58 57 54 51 48 47 45 42 41 39 37 37 37 36 34 31 28 25 25 26 27 27 26 24 24 23 23
28 28 29 33 36 36 35 36 42 39 29 30 33 34 37 31 22 22 24 23 22 22 23 23 22 23 25 27 29 32 35 36 36 36 38 38 39 43 47 54 60 62 65 66 67 71 71 66 62 63 69 73 72 75 83 86 86 87 87 85 84 83 81 79 76 73 69 65 60 59 59 58 55 51 49 48 45 42 41 40 39 38 36 34 31 28 26 26 27 28 28 27 26 25 25 25 25
26 27 28 30 33 38 37 33 33 31 26 31 35 34 34 29 22 21 22 22 22 22 22 23 22 23 25 26 29 33 36 36 36 35 37 38 39 42 47 55 62 64 66 68 68 70 68 64 63 65 70 73 72 77 85 88 86 86 86 85 83 82 80 77 73 70 66 62 60 60 59 57 54 52 52 50 46 44 43 40 38 36 34 31 28 27 27 28 29 29 28 27 26 26 26 26 26
26 26 27 27 29 32 34 30 29 31 32 37 41 38 30 26 24 22 20 22 23 23 24 23 23 24 25 27 29 33 35 35 35 36 37 38 40 42 47 57 63 64 67 69 69 69 67 64 65 67 71 73 73 77 84 87 86 85 85 84 82 79 76 73 70 67 65 63 61 60 59 58 58 56 55 50 45 43 41 39 37 34 31 29 28 29 30 30 30 29 29 28 28 28 28 27 25
28 28 29 29 27 28 31 31 30 33 36 42 48 42 29 26 27 25 23 23 23 24 25 24 24 24 25 27 29 31 32 33 35 38 38 39 40 43 49 57 62 64 68 71 71 70 68 66 66 67 70 74 73 73 78 82 84 85 84 83 80 76 73 70 67 66 65 63 61 60 62 62 61 58 53 47 43 41 39 37 35 32 30 30 31 31 31 31 31 30 30 30 30 29 28 26 24
29 29 29 27 25 29 33 33 33 34 32 36 44 39 29 26 26 28 29 24 23 24 24 24 24 24 25 26 28 30 31 33 36 38 39 42 42 45 51 57 60 65 69 72 72 71 70 68 67 66 69 73 73 71 73 76 80 83 84 83 78 73 70 68 66 64 62 60 61 64 65 64 61 56 49 43 39 37 36 35 34 32 31 32 32 32 32 31 31 31 31 31 30 29 27 25 23
29 30 28 27 28 30 32 34 35 34 29 32 40 37 30 26 23 29 31 26 24 24 23 23 24 24 25 26 27 29 31 34 37 38 40 43 45 47 52 56 60 65 69 73 74 73 73 70 66 66 70 72 71 71 73 75 78 82 84 82 76 71 68 66 63 61 59 61 65 67 66 63 60 52 43 39 37 36 35 35 34 33 32 33 33 33 33 32 32 32 32 31 30 29 27 24 23
29 29 28 30 33 31 31 35 36 34 30 33 37 36 32 26 22 26 28 26 26 24 23 24 24 24 25 26 29 30 31 34 36 37 39 42 44 47 51 57 62 66 69 73 75 75 75 70 64 64 68 70 69 70 74 77 80 82 83 80 73 67 64 62 59 59 61 65 67 67 66 62 56 47 40 38 37 36 35 35 34 34 34 34 34 35 34 34 33 33 32 31 30 29 26 23 23
30 31 30 31 32 30 31 34 34 34 32 32 34 33 30 24 22 23 23 24 24 24 25 24 24 25 26 27 29 30 31 33 35 38 39 42 44 46 52 58 63 65 67 72 76 77 76 70 62 61 64 66 67 69 74 79 81 82 81 77 70 63 59 58 58 61 65 67 67 66 65 60 53 45 39 38 37 36 36 35 35 35 35 35 35 36 36 35 34 33 32 31 30 29 26 23 23
31 31 31 30 30 30 31 32 31 31 32 31 31 31 25 22 23 22 21 22 22 24 26 25 25 26 27 28 30 31 32 34 36 38 40 43 45 49 54 59 62 64 67 72 76 78 76 68 61 60 62 65 66 68 74 80 82 81 79 74 66 59 57 57 60 64 67 67 67 66 63 58 51 44 39 38 38 37 37 37 36 35 36 36 37 37 37 36 35 33 31 30 30 28 25 23 24
30 30 29 29 29 30 29 31 31 29 31 32 31 27 23 23 25 22 19 19 21 23 24 25 26 26 28 30 31 32 34 36 38 40 42 44 46 51 55 58 61 62 65 72 76 77 73 65 60 60 61 63 66 66 71 78 81 80 77 71 63 57 58 60 63 66 67 67 67 66 62 57 50 43 41 41 40 39 38 37 36 36 36 36 37 38 38 36 34 32 31 30 30 28 25 24 26